TimePST,TemperatureF,Dew PointF,Humidity,Sea Level PressureIn,VisibilityMPH,Wind Direction,Wind SpeedMPH,Gust SpeedMPH,PrecipitationIn,Events,Conditions,WindDirDegrees,DateUTC
12:56 AM,25.0,17.1,72,30.56,10.0,Calm,Calm,-,N/A,,Clear,0,2014-01-06 08:56:00
1:56 AM,24.1,17.1,75,30.56,10.0,ESE,4.6,-,N/A,,Clear,120,2014-01-06 09:56:00
2:56 AM,26.1,17.1,69,30.55,10.0,East,5.8,-,N/A,,Clear,80,2014-01-06 10:56:00
3:56 AM,27.0,17.1,66,30.54,10.0,ENE,5.8,-,N/A,,Clear,60,2014-01-06 11:56:00
4:56 AM,27.0,17.1,66,30.52,10.0,East,9.2,-,N/A,,Clear,80,2014-01-06 12:56:00
5:56 AM,27.0,17.1,66,30.51,10.0,ENE,11.5,-,N/A,,Clear,70,2014-01-06 13:56:00
6:56 AM,28.0,16.0,61,30.49,10.0,ENE,15.0,-,N/A,,Clear,60,2014-01-06 14:56:00
7:56 AM,27.0,16.0,63,30.50,10.0,ENE,10.4,-,N/A,,Clear,70,2014-01-06 15:56:00
8:56 AM,28.0,16.0,61,30.49,10.0,ENE,15.0,-,N/A,,Clear,60,2014-01-06 16:56:00
9:56 AM,32.0,17.1,54,30.47,10.0,East,8.1,-,N/A,,Clear,80,2014-01-06 17:56:00
10:56 AM,33.1,18.0,54,30.44,10.0,East,4.6,-,N/A,,Clear,90,2014-01-06 18:56:00
11:56 AM,36.0,19.0,50,30.38,10.0,NNE,3.5,-,N/A,,Clear,30,2014-01-06 19:56:00
12:56 PM,35.1,19.9,54,30.34,10.0,NNW,4.6,-,N/A,,Clear,330,2014-01-06 20:56:00
1:56 PM,35.1,19.0,52,30.32,10.0,West,4.6,-,N/A,,Clear,280,2014-01-06 21:56:00
2:56 PM,36.0,19.0,50,30.31,10.0,Calm,Calm,-,N/A,,Clear,0,2014-01-06 22:56:00
3:56 PM,35.1,18.0,50,30.31,10.0,Calm,Calm,-,N/A,,Clear,0,2014-01-06 23:56:00
4:56 PM,35.1,18.0,50,30.28,10.0,Calm,Calm,-,N/A,,Clear,0,2014-01-07 00:56:00
5:56 PM,33.1,19.0,56,30.28,10.0,Calm,Calm,-,N/A,,Clear,0,2014-01-07 01:56:00
6:56 PM,30.9,19.0,61,30.26,10.0,Calm,Calm,-,N/A,,Clear,0,2014-01-07 02:56:00
7:56 PM,33.1,19.0,56,30.24,10.0,Calm,Calm,-,N/A,,Clear,0,2014-01-07 03:56:00
8:56 PM,32.0,19.9,61,30.24,10.0,North,3.5,-,N/A,,Clear,360,2014-01-07 04:56:00
9:56 PM,30.0,19.9,66,30.24,9.0,Calm,Calm,-,N/A,,Clear,0,2014-01-07 05:56:00
10:56 PM,28.9,19.9,69,30.23,10.0,East,3.5,-,N/A,,Clear,80,2014-01-07 06:56:00
11:56 PM,32.0,19.9,61,30.22,10.0,Calm,Calm,-,N/A,,Clear,0,2014-01-07 07:56:00